[[{"header":{"parameterUnit":"m.s-1","parameterCategory":1,"la1":30.2991,"la2":30.254,"lo1":-89.0895,"lo2":-89.0444,"dy":0.0017,"dx":0.0017,"nx":28,"ny":28,"refTime":"2023-09-16T03:00:00:Z","depth":0,"parameterNumber":2,"parameterNumberName":"U-component_of_WINDS"},"data":[0,0,0,0,0,0,0,0,0,0,0,0,0,0,0,0,0,0,0,0,0,0,0,0,0,0,0,0,0,0,0,0,0,0,0,0,0,0,0,0,0,0,0,0,0,0,0,0,0,0,0,0,0,0,0,0,0,0,0.3398,0.3397,0,0.3378,0.3377,0.3377,0.3354,0.3354,0.3354,0.3353,0.3334,0.3334,0.3334,0,0,0,0,0,0,0,0,0,0,0,0,0,0.3419,0.3419,0.3398,0.3397,0.3397,0.3378,0.3377,0.3377,0.3355,0.3354,0.3354,0.3353,0.3334,0.3334,0.3334,0,0,0,0,0,0,0,0,0,0,0,0,0,0.3406,0.3419,0.3398,0.3384,0.3382,0.3378,0.3377,0.3377,0.3355,0.3354,0.3354,0.3353,0.3335,0.3334,0.3334,0.3342,0,0,0.3333,0.3333,0,0,0,0,0,0,0,0,0.3406,0.3405,0.3386,0.3385,0.3383,0.3368,0.3378,0.3365,0.3355,0.3365,0.3353,0.3353,0.3346,0.3345,0.3342,0.3341,0.3341,0.3333,0.3333,0.3333,0.3333,0,0,0,0,0,0,0,0.3407,0.3406,0.339,0.3386,0.3384,0.3379,0.3377,0.3375,0.3359,0.3364,0.3362,0.336,0.3345,0.3342,0.3342,0.334,0.3333,0.3333,0.3333,0.3332,0.3347,0.3347,0,0,0,0,0,0,0.341,0.3407,0.339,0.3389,0.3394,0.3379,0.3376,0.3373,0.3359,0.3356,0.3361,0.3359,0.3343,0.3342,0.3341,0.335,0.3333,0.3332,0.3332,0.3346,0.3347,0.3348,0,0,0,0,0,0,0.3411,0.3409,0.3391,0.3397,0.3395,0.3379,0.3376,0.3373,0.337,0.3356,0.3353,0.3361,0.3343,0.3341,0.3342,0.3349,0.3332,0.3332,0.3346,0.3346,0.3347,0.3369,0,0,0,0,0,0,0.3411,0.3409,0.3411,0.3398,0.3394,0.3392,0.3376,0.3373,0.337,0.3368,0.3355,0.3353,0.3342,0.3343,0.3342,0.3348,0.3332,0.3345,0.3346,0.3347,0.3367,0.337,0.3373,0,0,0,0,0,0.3412,0.3418,0.3412,0.341,0.3397,0.3393,0.3391,0.3378,0.337,0.3373,0.3364,0.3353,0.3349,0.3343,0.3342,0.3348,0.3344,0.3346,0.3347,0.3366,0.337,0.3373,0,0,0,0,0,0,0.3434,0.3416,0.3409,0.341,0.3403,0.3389,0.3391,0.3382,0.3377,0.3375,0.336,0.3358,0.3361,0.3355,0.3349,0.3357,0.3345,0.3346,0.336,0.3363,0.3366,0.3367,0.3332,0,0,0,0,0,0.3438,0.3436,0.3421,0.3424,0.3421,0.3407,0.3405,0.3395,0.3388,0.3385,0.3376,0.3369,0.3366,0.3364,0.3361,0.3367,0.3364,0.3371,0.3373,0.3376,0.3377,0.338,0.3383,0.3352,0.3352,0.3352,0,0,0.3448,0.3439,0.3438,0.3428,0.3421,0.342,0.3404,0.3403,0.3402,0.3384,0.3385,0.3378,0.337,0.3374,0.3375,0.3369,0.3385,0.3377,0.3379,0.3379,0.3382,0.3385,0.3388,0.3352,0.3352,0.3352,0,0,0.3466,0.3458,0.346,0.3454,0.3444,0.3435,0.3436,0.3423,0.3418,0.3418,0.3405,0.3405,0.34,0.3395,0.3391,0.3409,0.3399,0.3408,0.3422,0.3426,0.3428,0.343,0.3437,0.344,0.341,0.341,0.341,0,0.3479,0.3476,0.3462,0.3462,0.3458,0.3443,0.3445,0.344,0.343,0.3429,0.3422,0.3416,0.341,0.3412,0.3417,0.3415,0.3416,0.3409,0.3429,0.3431,0.3433,0.3439,0.3442,0.3411,0.3411,0.3411,0.341,0,0.3493,0.3491,0.3494,0.3485,0.3482,0.3483,0.3471,0.3469,0.3461,0.3453,0.3455,0.3446,0.3441,0.3442,0.3433,0.3444,0.344,0.3432,0.342,0.3437,0.3443,0.3445,0.3412,0.3412,0.3412,0.3411,0,0,0.3522,0.3506,0.3507,0.3504,0.3492,0.3491,0.3492,0.3487,0.3487,0.3481,0.3482,0.348,0.3472,0.3468,0.346,0.3463,0.3479,0.3454,0.3454,0.3459,0.349,0.3497,0.35,0.3472,0.3473,0.3473,0.3491,0,0.3537,0.3538,0.3526,0.353,0.3529,0.3515,0.3516,0.351,0.3503,0.3502,0.3495,0.3493,0.3483,0.3481,0.3484,0.3476,0.3485,0.3475,0.3474,0.3474,0.3476,0.3503,0.3509,0.3526,0.3493,0.3494,0.3494,0,0.3555,0.355,0.3554,0.3544,0.3543,0.3544,0.3539,0.3538,0.3532,0.3527,0.3524,0.3514,0.3516,0.3505,0.3508,0.3501,0.3501,0.3497,0.3498,0.3497,0.3485,0.3503,0.3532,0.3534,0.3497,0.3497,0.3497,0,0.3576,0.357,0.3572,0.3569,0.3558,0.3559,0.3554,0.3547,0.3546,0.3542,0.3541,0.3538,0.3536,0.3534,0.3525,0.3517,0.3529,0.3517,0.3525,0.3526,0.3528,0.3528,0.3557,0.3528,0.3528,0.3528,0.3527,0,0.3593,0.3596,0.3581,0.3582,0.3586,0.3574,0.3578,0.3572,0.3566,0.3567,0.3555,0.3556,0.3543,0.3543,0.3536,0.354,0.3539,0.3535,0.3533,0.3536,0.3537,0.3535,0.3534,0.3528,0.3528,0.3528,0.3528,0,0.3617,0.3607,0.3608,0.3597,0.3595,0.3598,0.3589,0.3591,0.3584,0.3585,0.3584,0.3574,0.3573,0.3564,0.3561,0.3556,0.3563,0.3559,0.3565,0.3564,0.3573,0.3572,0.3602,0.3605,0.3574,0.3574,0.3574,0,0.3629,0.3631,0.3621,0.362,0.3616,0.3615,0.3614,0.3603,0.3601,0.3595,0.3598,0.3596,0.3594,0.3594,0.3587,0.3585,0.3581,0.3591,0.358,0.3584,0.3581,0.3581,0.3582,0.3594,0.3594,0.3594,0.3595,0,0.3651,0.3647,0.3644,0.3641,0.3639,0.3636,0.3632,0.3633,0.3621,0.362,0.362,0.3618,0.3616,0.3615,0.3612,0.3608,0.36,0.3598,0.36,0.3603,0.3607,0.3605,0.3571,0.3597,0.3597,0.3597,0.3597,0.3597,0.3669,0.3671,0.3664,0.3663,0.3659,0.3656,0.3657,0.3651,0.365,0.3647,0.3641,0.3641,0.3636,0.3632,0.3629,0.363,0.3625,0.3627,0.3628,0.3629,0.363,0.3607,0.3629,0.3629,0.3629,0.3629,0.3629,0,0.3691,0.3687,0.3685,0.3681,0.368,0.3672,0.3668,0.3668,0.3668,0.3665,0.3663,0.3663,0.3663,0.3656,0.3655,0.3657,0.3653,0.3657,0.3657,0.3656,0.3635,0.3634,0.366,0.366,0.366,0.366,0.366,0.366,0.3702,0.3705,0.37,0.3701,0.3697,0.3697,0.3696,0.3693,0.369,0.3691,0.369,0.3686,0.3681,0.368,0.3679,0.3678,0.3678,0.3683,0.368,0.366,0.3657,0.3655,0.3653,0.3683,0.3683,0.3701,0.3701,0.3701]},{"header":{"parameterUnit":"m.s-1","parameterCategory":1,"la1":30.2991,"la2":30.254,"lo1":-89.0895,"lo2":-89.0444,"dy":0.0017,"dx":0.0017,"nx":28,"ny":28,"refTime":"2023-09-16T03:00:00:Z","depth":0,"parameterNumber":3,"parameterNumberName":"V-component_of_WINDS"},"data":[0,0,0,0,0,0,0,0,0,0,0,0,0,0,0,0,0,0,0,0,0,0,0,0,0,0,0,0,0,0,0,0,0,0,0,0,0,0,0,0,0,0,0,0,0,0,0,0,0,0,0,0,0,0,0,0,0,0,-3.6356,-3.6357,0,-3.6467,-3.6468,-3.6469,-3.6472,-3.6471,-3.6469,-3.6468,-3.658,-3.6584,-3.6588,0,0,0,0,0,0,0,0,0,0,0,0,0,-3.6142,-3.6146,-3.6355,-3.6357,-3.6358,-3.6467,-3.6468,-3.647,-3.6472,-3.647,-3.6469,-3.6467,-3.6578,-3.6583,-3.6588,0,0,0,0,0,0,0,0,0,0,0,0,0,-3.6242,-3.6148,-3.6355,-3.6373,-3.6375,-3.6466,-3.6468,-3.647,-3.6472,-3.647,-3.6468,-3.6466,-3.6576,-3.6583,-3.6589,-3.667,0,0,-3.6608,-3.6611,0,0,0,0,0,0,0,0,-3.6237,-3.625,-3.6369,-3.6372,-3.6375,-3.6453,-3.6434,-3.6537,-3.6473,-3.6435,-3.6468,-3.6465,-3.6539,-3.6548,-3.6574,-3.6675,-3.668,-3.6609,-3.6613,-3.6616,-3.6617,0,0,0,0,0,0,0,-3.623,-3.6245,-3.6399,-3.637,-3.6374,-3.6374,-3.6386,-3.6454,-3.6497,-3.6439,-3.6439,-3.6452,-3.654,-3.6568,-3.6576,-3.6681,-3.6609,-3.6614,-3.6618,-3.6621,-3.6853,-3.6856,0,0,0,0,0,0,-3.622,-3.624,-3.6396,-3.6403,-3.6299,-3.638,-3.6393,-3.643,-3.6497,-3.6505,-3.6454,-3.6452,-3.6558,-3.6569,-3.658,-3.6678,-3.6616,-3.6622,-3.6625,-3.6851,-3.6854,-3.6856,0,0,0,0,0,0,-3.6215,-3.6234,-3.6391,-3.6322,-3.6342,-3.6385,-3.6427,-3.6433,-3.6461,-3.6508,-3.6516,-3.6474,-3.6557,-3.6571,-3.6647,-3.6682,-3.6624,-3.663,-3.6848,-3.6852,-3.6855,-3.6876,0,0,0,0,0,0,-3.6209,-3.6232,-3.6264,-3.6322,-3.6345,-3.6457,-3.643,-3.6437,-3.6472,-3.6471,-3.6529,-3.6537,-3.6556,-3.6638,-3.6654,-3.669,-3.6635,-3.6845,-3.685,-3.6854,-3.6872,-3.6879,-3.6886,0,0,0,0,0,-3.6201,-3.6265,-3.6265,-3.6284,-3.6386,-3.6459,-3.6472,-3.6494,-3.6475,-3.6507,-3.6537,-3.6535,-3.6676,-3.6646,-3.6663,-3.6702,-3.6843,-3.6849,-3.6854,-3.6869,-3.6878,-3.6885,0,0,0,0,0,0,-3.6208,-3.6273,-3.6274,-3.6358,-3.6403,-3.646,-3.65,-3.6503,-3.6554,-3.655,-3.6574,-3.6588,-3.6663,-3.669,-3.6655,-3.6783,-3.6757,-3.6766,-3.6763,-3.6772,-3.6778,-3.677,-3.664,0,0,0,0,0,-3.6219,-3.6275,-3.6328,-3.6397,-3.6419,-3.6456,-3.6489,-3.6502,-3.6549,-3.6568,-3.6604,-3.665,-3.6704,-3.674,-3.6793,-3.6876,-3.6888,-3.6912,-3.6919,-3.6924,-3.6931,-3.6977,-3.6987,-3.6874,-3.6874,-3.6874,0,0,-3.6243,-3.6285,-3.6318,-3.6399,-3.6436,-3.6491,-3.6472,-3.6532,-3.6573,-3.6577,-3.6651,-3.6679,-3.6731,-3.6811,-3.6848,-3.6837,-3.6966,-3.6931,-3.6935,-3.6939,-3.6983,-3.6994,-3.7003,-3.6877,-3.6877,-3.6876,0,0,-3.6315,-3.6353,-3.6414,-3.6451,-3.6507,-3.6531,-3.6546,-3.6602,-3.6621,-3.6696,-3.67,-3.6749,-3.6843,-3.688,-3.6911,-3.6997,-3.6996,-3.7014,-3.7049,-3.7093,-3.7102,-3.711,-3.714,-3.715,-3.7021,-3.7021,-3.7021,0,-3.6337,-3.6421,-3.6445,-3.6505,-3.654,-3.6547,-3.6609,-3.6643,-3.6713,-3.6737,-3.6723,-3.6841,-3.6877,-3.6965,-3.6986,-3.7012,-3.7028,-3.7006,-3.7099,-3.7107,-3.7115,-3.7143,-3.7155,-3.7023,-3.7022,-3.7022,-3.7022,0,-3.6445,-3.6504,-3.6547,-3.6615,-3.6655,-3.6715,-3.6747,-3.6785,-3.6794,-3.682,-3.6895,-3.6939,-3.7,-3.7023,-3.7032,-3.7112,-3.7103,-3.7094,-3.7068,-3.7127,-3.7154,-3.7165,-3.7025,-3.7024,-3.7024,-3.7023,0,0,-3.6523,-3.6604,-3.6619,-3.665,-3.6712,-3.6758,-3.6818,-3.6879,-3.6911,-3.6959,-3.701,-3.7089,-3.7081,-3.7116,-3.713,-3.7169,-3.7234,-3.7155,-3.7157,-3.7167,-3.7323,-3.7329,-3.7341,-3.7234,-3.7236,-3.7238,-3.7319,0,-3.66,-3.6709,-3.6732,-3.6825,-3.6879,-3.6887,-3.694,-3.6983,-3.7009,-3.7058,-3.7086,-3.7141,-3.7127,-3.7148,-3.7187,-3.7217,-3.7265,-3.7212,-3.728,-3.7283,-3.7266,-3.7356,-3.7362,-3.7435,-3.7329,-3.7331,-3.7333,0,-3.6704,-3.6756,-3.6855,-3.691,-3.6933,-3.6981,-3.7038,-3.7085,-3.7135,-3.7151,-3.719,-3.72,-3.7263,-3.7235,-3.7321,-3.7284,-3.7314,-3.7333,-3.7337,-3.7342,-3.731,-3.7363,-3.7459,-3.747,-3.735,-3.7348,-3.7347,0,-3.6749,-3.6843,-3.6915,-3.6941,-3.7007,-3.704,-3.7069,-3.7117,-3.7152,-3.7203,-3.7225,-3.7282,-3.7313,-3.7356,-3.7381,-3.7359,-3.7465,-3.7439,-3.7479,-3.7478,-3.7499,-3.7497,-3.7601,-3.7521,-3.7521,-3.752,-3.752,0,-3.6832,-3.6892,-3.6936,-3.6979,-3.7046,-3.7072,-3.7138,-3.7167,-3.7209,-3.7258,-3.7269,-3.7314,-3.7345,-3.7394,-3.7414,-3.7482,-3.7496,-3.7509,-3.7514,-3.7508,-3.7506,-3.7526,-3.7521,-3.7523,-3.7523,-3.7522,-3.7522,0,-3.6893,-3.6925,-3.7003,-3.706,-3.7075,-3.7122,-3.7171,-3.7213,-3.7239,-3.7301,-3.7317,-3.7357,-3.7416,-3.7446,-3.7519,-3.7532,-3.7608,-3.761,-3.7591,-3.7593,-3.763,-3.7625,-3.7749,-3.7766,-3.7676,-3.7677,-3.7677,0,-3.6943,-3.6989,-3.7051,-3.7085,-3.7115,-3.717,-3.7206,-3.7233,-3.727,-3.733,-3.7365,-3.7425,-3.7474,-3.7568,-3.7603,-3.7659,-3.7661,-3.7701,-3.767,-3.7662,-3.766,-3.7657,-3.7661,-3.7706,-3.7707,-3.7707,-3.7708,0,-3.7028,-3.7041,-3.7093,-3.7151,-3.7194,-3.7241,-3.7287,-3.7314,-3.7349,-3.739,-3.745,-3.7489,-3.7564,-3.7622,-3.7681,-3.771,-3.7715,-3.7718,-3.773,-3.7723,-3.771,-3.7716,-3.7605,-3.7714,-3.7714,-3.7713,-3.7713,-3.7713,-3.7084,-3.7125,-3.7175,-3.7233,-3.7271,-3.7313,-3.7356,-3.7388,-3.7439,-3.7503,-3.7516,-3.758,-3.7628,-3.7708,-3.7739,-3.7789,-3.778,-3.7798,-3.7802,-3.7805,-3.7806,-3.7703,-3.78,-3.78,-3.78,-3.7799,-3.7799,0,-3.7168,-3.7201,-3.7254,-3.7318,-3.7363,-3.7365,-3.7416,-3.7453,-3.751,-3.7555,-3.7603,-3.7673,-3.773,-3.7771,-3.7828,-3.7861,-3.7864,-3.7875,-3.7872,-3.7878,-3.7811,-3.7795,-3.7871,-3.7871,-3.7871,-3.7871,-3.7871,-3.7871,-3.7217,-3.7287,-3.7306,-3.7395,-3.7427,-3.7491,-3.7519,-3.7559,-3.7595,-3.7672,-3.772,-3.7747,-3.779,-3.7851,-3.7903,-3.7914,-3.7934,-3.7944,-3.7954,-3.7891,-3.7883,-3.7876,-3.786,-3.7949,-3.7949,-3.8017,-3.8018,-3.8018]}]]